Regional Weather Roundup
Issued by NWS

Home | Current Version | Previous Version | Graphics & Text | Print | Product List | Glossary On
Versions: 1 2 3 4 5 6 7 8 9 10 11 12 13 14 15 16 17 18 19 20 21 22 23 24 25 26 27 28 29 30 31 32 33 34 35 36 37 38 39 40 41 42 43 44 45 46 47 48 49 50
000
ASUS43 KDTX 011010
RWRMI
MICHIGAN HOURLY REGIONAL WEATHER ROUNDUP
NATIONAL WEATHER SERVICE DETROIT/PONTIAC MI
600 AM EDT WED APR 01 2015

NOTE: "FAIR" INDICATES FEW OR NO CLOUDS BELOW 12,000 FEET WITH NO
SIGNIFICANT WEATHER AND/OR OBSTRUCTION TO VISIBILITY.

MIZ047>049-052>055-059>063-066>070-074>076-081>083-011100-
SOUTHEAST LOWER MICHIGAN

CITY           SKY/WX    TMP DP  RH WIND       PRES   REMARKS
ADRIAN         PTCLDY    32  30  92 SW3       30.02R FOG
ALMA           FOG       28  28 100 CALM      30.02R VSB 3/4
ANN ARBOR      PTCLDY    30  29  96 CALM      30.01R FOG
BAD AXE        PTCLDY    29  24  80 CALM      30.04R
CARO           PTCLDY    27  25  91 CALM      30.02R
DETROIT CITY   PTCLDY    37  31  78 SW6       30.02R WCI  32
DETROIT        MOCLDY    34  31  88 S8        30.03R FOG     WCI  27
FLINT          PTCLDY    32  29  88 CALM      30.01R
GROSSE ILE     CLOUDY    36  30  80 SW3       30.02R
HILLSDALE      CLEAR     33  33 100 CALM      29.99R FOG
HOWELL         CLEAR     30  27  90 CALM      30.00R

CITY           SKY/WX    TMP DP  RH WIND       PRES   REMARKS
JACKSON        CLEAR     29  25  85 CALM      30.00R
LAMBERTVILLE   PTCLDY    34  32  93 CALM      30.03R FOG
LANSING        CLEAR     29  24  82 CALM      30.00R
LAPEER         FAIR      27  26  96 CALM      30.01R
MASON          CLEAR     31  26  83 CALM      29.99S
MONROE         MOCLDY    30  28  93 CALM      30.01R FOG
MT. CLEMENS    FOG       27  25  93 N2        30.00R VSB 1/4
PONTIAC        MOCLDY    30  28  92 CALM      29.99R
PORT HOPE        N/A     31  27  85 SE6       30.03R WCI  25
PORT HURON     CLOUDY    30  28  93 CALM      30.02R
TRI CITIES     CLEAR     29  25  85 NE5       30.02R WCI  24
TROY           MOCLDY    34  32  92 CALM      30.03R FOG
SAGINAW HB     PTCLDY    28  28 100 NE3       30.02R
$$
MIZ043>046-050>051-056>058-064>065-071>073-077>080-011100-
SOUTHWEST LOWER MICHIGAN

CITY           SKY/WX    TMP DP  RH WIND       PRES   REMARKS
BATTLE CREEK   CLEAR     29  24  82 S5        30.00R WCI  24
BENTON HARBOR  CLEAR     31  30  96 N3        30.01R
BIG RAPIDS     FOG       31  31 100 CALM      30.00R VSB 1/4
COLDWATER      CLEAR     30  27  90 CALM      30.00R
FREMONT        FAIR      28  27  96 CALM      29.99R
HOLLAND        CLEAR     32  28  85 CALM      29.99R
GRAND RAPIDS   CLEAR     30  24  78 CALM      29.99R
IONIA          FAIR      29  28  94 CALM      29.99R
KALAMAZOO      CLEAR     31  27  85 CALM      30.00R
LUDINGTON      CLEAR     28  25  91 E3        30.00R
MARSHALL       CLEAR     26  25  94 CALM      29.99S
MOUNT PLEASANT CLEAR     28  27  96 N3        30.01R
MUSKEGON       CLEAR     29  26  89 CALM      29.99S
SOUTH HAVEN    CLEAR     31  29  93 S3        30.00R
$$
MIZ016>042-011100-
NORTHERN LOWER MICHIGAN

CITY           SKY/WX    TMP DP  RH WIND       PRES   REMARKS
ALPENA         CLOUDY    30  27  88 CALM      30.05R
BEAVER ISLAND  CLOUDY    30  30  99 CALM      30.02R
BELLAIRE       CLOUDY    33  30  86 CALM      30.02R
CADILLAC       FOG       26  24  93 CALM      29.98R VSB 3/4
CHARLEVOIX     MOCLDY    31  30  97 CALM      30.04R FOG
FRANKFORT      CLEAR     28  23  82 CALM      30.00R
GAYLORD        CLOUDY    31  27  85 CALM      29.99R
GRAYLING       CLOUDY    27  25  91 CALM      30.01R
HARBOR SPRINGS CLOUDY    30  29  96 E3        30.01S
HOUGHTON LAKE  CLEAR     25  21  85 CALM      30.01R
OSCODA         CLOUDY    31  27  84 CALM      30.04R
PELLSTON       CLOUDY    30  28  92 NE3       30.03R
ROGERS CITY    CLOUDY    31  31  98 CALM      30.05R
TRAVERSE CITY  CLEAR     26  24  92 CALM      30.00R
$$
MIZ007>008-015-011100-
EASTERN UPPER MICHIGAN

CITY           SKY/WX    TMP DP  RH WIND       PRES   REMARKS
KINROSS        CLOUDY    30  30 100 CALM      30.02R
MACKINAC ISLAN CLOUDY    31  31 100 NE5       30.02R WCI  26
NEWBERRY       CLOUDY    28  28 100 N8        30.01R FOG     WCI  20
S. S. MARIE    CLOUDY    29  26  89 CALM      30.02R
MUNISING         N/A     39  30  70 CALM      30.01R
$$
MIZ004>006-011>014-085-011100-
CENTRAL UPPER MICHIGAN

CITY           SKY/WX    TMP DP  RH WIND       PRES   REMARKS
MANISTIQUE     CLOUDY    31  31 100 CALM      30.01S
ESCANABA       CLEAR     30  25  80 NE5       30.00S WCI  25
MENOMINEE      PTCLDY    27  21  80 NW3       30.00R
SAWYER-GWINN   CLOUDY    29  27  91 E5        29.98R WCI  24
$$
MIZ001>003-009>011-084-011100-
WESTERN UPPER MICHIGAN

CITY           SKY/WX    TMP DP  RH WIND       PRES   REMARKS
IRON MOUNTAIN  CLOUDY    28  26  92 CALM      29.97R
HOUGHTON       CLOUDY    28  27  96 SE13      29.97R FOG     WCI  17
COPPER HARBOR    N/A     28  26  92 CALM      29.99F
IRONWOOD       MOCLDY    28  28 100 CALM      29.92R
$$

ABBREVIATIONS USED IN REMARKS
   TC - TEMPERATURE IN CELSIUS
  WCI - WIND CHILL INDEX
   HX - HEAT INDEX
  VSB - VISIBILITY



USA.gov is the U.S. government's official web portal to all federal, state and local government web resources and services.